Regional Weather Roundup
Issued by NWS

Home | Current Version | Previous Version | Graphics & Text | Print | Product List | Glossary On
Versions: 1 2 3 4 5 6 7 8 9 10 11 12 13 14 15 16 17 18 19 20 21 22 23 24 25 26 27 28 29 30 31 32 33 34 35 36 37 38 39 40 41 42 43 44 45 46 47 48 49 50
000
ASUS43 KMPX 282310
RWRMN
WEATHER ROUNDUP FOR MINNESOTA
NATIONAL WEATHER SERVICE TWIN CITIES/CHANHASSEN MN
600 PM CDT TUE MAR 28 2017


NOTE: "FAIR" INDICATES FEW OR NO CLOUDS BELOW 12,000 FEET WITH NO
SIGNIFICANT WEATHER AND/OR OBSTRUCTIONS TO VISIBILITY. N/A MEANS
CURRENT SKY AND/OR WEATHER CONDITIONS ARE NOT AVAILABLE.

MNZ060>063-068>070-290000-
   Twin Cities Metro

CITY           SKY/WX    TMP DP  RH WIND       PRES   REMARKS
TWIN CITIES    PTSUNNY   64  30  27 NE3       30.12S
ST PAUL        MOSUNNY   63  30  28 E5        30.13R
CRYSTAL        MOSUNNY   62  22  21 E7        30.11S
BLAINE         MOSUNNY   64  25  22 E6        30.13R
LAKEVILLE      MOSUNNY   61  34  36 E5        30.12S
EDEN PRAIRIE   MOSUNNY   63  27  25 SE5       30.11S
SOUTH ST PAUL  MOSUNNY   63  31  30 E6        30.12S
LAKE ELMO      FAIR      61  32  33 NE6       30.14R
$$
MNZ001>005-007-008-013>017-022>024-027-028-290000-
   Northwest Minnesota

CITY           SKY/WX    TMP DP  RH WIND       PRES   REMARKS
BEMIDJI        SUNNY     56  29  34 N5        30.14S
HALLOCK        MOSUNNY   46  41  81 N8        30.19S
ROSEAU         PTSUNNY   52  36  54 E5        30.20S
WARROAD        MOSUNNY   43  30  61 NE7       30.22S
THIEF RVR FALL SUNNY     54  35  48 N8        30.17F
CROOKSTON      MOSUNNY   55  37  50 NE3       30.17S
FOSSTON        SUNNY     57  37  47 N8        30.16S
DETROIT LAKES  SUNNY     57  36  44 N5        30.14S
MOORHEAD       MOSUNNY   55  43  62 N6        30.15R
PARK RAPIDS    SUNNY     61  27  27 NE8       30.11F
MAHNOMEN       FAIR      56  36  47 N9        30.14R
$$
MNZ006-009>011-018-025>026-290000-
   North Central Minnesota

CITY           SKY/WX    TMP DP  RH WIND       PRES   REMARKS
BAUDETTE       SUNNY     50  29  44 MISG      30.19S
FLAG ISLAND    PTSUNNY   45  23  42 NE9       30.21S
INTL FALLS     SUNNY     52  27  38 E6        30.19S
WASKISH        SUNNY     52  32  46 W5        30.16F
BIG FORK       SUNNY     57  27  30 N6        30.15F
LONGVILLE      SUNNY     57  25  28 CALM      30.13S
GRAND RAPIDS   SUNNY     58  27  30 N8        30.15F
CRANE LAKE     SUNNY     52  23  32 N5        30.20S
ORR            SUNNY     55  21  26 CALM      30.15S
COOK           SUNNY     55  28  35 N3        30.16F
WALKER         FAIR      56  28  35 E6        30.13F
$$
MNZ012-019>021-037-290000-
   Northeast Minnesota

CITY           SKY/WX    TMP DP  RH WIND       PRES   REMARKS
DULUTH         MOSUNNY   54  32  43 SE6       30.14S
ELY            SUNNY     54  25  32 NE7       30.16S
HIBBING        SUNNY     56  28  34 NW6       30.14F
EVELETH        SUNNY     58  20  23 N5        30.15F
DULUTH HARBOR  MOSUNNY   43  34  70 CALM      30.15S
TWO HARBORS    MOSUNNY   45  34  65 E5        30.15R
SILVER BAY     MOSUNNY   43  30  61 E7        30.16R
GRAND MARAIS     N/A     39  30  70 E9        30.22R
G MARAIS ARPRT SUNNY     43  25  49 SE3       30.19R
$$
MNZ029>031-032-039>041-046>048-054>057-064-290000-
   West Central Minnesota

CITY           SKY/WX    TMP DP  RH WIND       PRES   REMARKS
FERGUS FALLS   MOSUNNY   59  39  47 N5        30.16R
WHEATON        MOSUNNY   59  36  41 CALM      30.16R
MORRIS         SUNNY     61  36  39 CALM      30.12R
ALEXANDRIA     SUNNY     61  33  35 N3        30.12S
ELBOW LAKE     FAIR      58  38  47 CALM      30.13R
WADENA         SUNNY     57  34  41 CALM      30.11S
GLENWOOD       MOSUNNY   61  32  33 E5        30.14R
APPLETON       SUNNY     63  30  29 CALM      30.13R
BENSON         MOSUNNY   64  21  19 S5        30.15R
ORTONVILLE     MOSUNNY   59  36  41 SE5       30.13R
MADISON        SUNNY     63  37  39 NE8       30.12S
WILLMAR        FAIR      61  34  36 NE7       30.14R
$$
MNZ033>034-036-042>043-049>051-058-059-290000-
   Central Minnesota

CITY           SKY/WX    TMP DP  RH WIND       PRES   REMARKS
ST CLOUD       SUNNY     61  24  24 VRB3      30.12S
SAUK CENTRE    FAIR      60  30  31 E3        30.12S
PAYNESVILLE    MOSUNNY   60  28  29 SE6       30.13R
AITKIN         SUNNY     63  21  20 N6        30.11S
PINE RIVER     SUNNY     59  34  38 N9        30.15S
BRAINERD       SUNNY     61  29  29 NE7       30.12S
STAPLES        CLOUDY    61  28  29 CALM      30.11S
LONG PRAIRIE   FAIR      59  32  36 SE5       30.13R
LITTLE FALLS   SUNNY     61  28  29 SE6       30.13R
LITCHFIELD     SUNNY     63  30  29 SE7       30.13S
BUFFALO        SUNNY     61  26  26 N6        30.14R
MAPLE LAKE     SUNNY     62  31  31 SE3       30.14S
HUTCHINSON     MOSUNNY   61  35  37 NE7       30.14S
$$
MNZ037-044-045-052-053-290000-
   East Central Minnesota

CITY           SKY/WX    TMP DP  RH WIND       PRES   REMARKS
PRINCETON      SUNNY     63  25  23 NE6       30.13S
MORA           SUNNY     59  28  31 CALM      30.14S
CAMBRIDGE      SUNNY     63  37  39 CALM      30.11S
RUSH CITY      SUNNY     61  25  24 N3        30.13S
MOOSE LAKE     MOSUNNY   61  32  33 E3        30.11S
CLOQUET        PTSUNNY   59  25  27 SE6       30.13S
MCGREGOR       SUNNY     59  32  36 N7        30.13S
$$
MNZ071>073-080-081-089-090-097-098-290000-
   Southwest Minnesota

CITY           SKY/WX    TMP DP  RH WIND       PRES   REMARKS
MONTEVIDEO     SUNNY     63  34  34 E9        30.13R
GRANITE FALLS  MOSUNNY   63  35  35 NE9       30.13R
CANBY          MOSUNNY   60  38  43 CALM      30.12F
MARSHALL       CLOUDY    60  36  40 E8        30.11S
REDWOOD FALLS  SUNNY     62  30  29 E8        30.11S
OLIVIA         SUNNY     61  30  31 NE6       30.12R
PIPESTONE      CLOUDY    57  34  41 SE8       30.10R
WINDOM         MOSUNNY   59  34  38 NE13      30.10F
WORTHINGTON    MOSUNNY   56  37  49 E12       30.10S
JACKSON        MOSUNNY   55  34  44 E13       30.11S
TRACY          CLOUDY    60  37  42 SE10      30.11S
SLAYTON        PTSUNNY   56  37  48 E12G17    30.11S
$$
MNZ065>067-074>077-082>085-091>093-290000-
   South Central Minnesota

CITY           SKY/WX    TMP DP  RH WIND       PRES   REMARKS
MANKATO        SUNNY     60  32  34 SE12      30.12S
NEW ULM        MOSUNNY   61  30  31 SE7       30.12R
ST JAMES       SUNNY     59  37  44 E12       30.12S
FAIRMONT       SUNNY     58  39  49 E13       30.10S
GLENCOE        SUNNY     62  35  35 E5        30.12S
FARIBAULT      SUNNY     61  36  39 E9        30.13S
OWATONNA       SUNNY     59  36  41 E9        30.13R
WASECA         SUNNY     59  34  38 E8        30.14R
ALBERT LEA     SUNNY     57  34  41 E9        30.12R
$$
MNZ078>079-086>088-094>096-290000-
   Southeast Minnesota

CITY           SKY/WX    TMP DP  RH WIND       PRES   REMARKS
ROCHESTER      SUNNY     56  37  49 E9        30.13R
RED WING       SUNNY     63  27  25 S5        30.12S
STANTON        SUNNY     62  35  36 E6        30.11S
DODGE CENTER   SUNNY     57  37  47 E9        30.13S
WINONA         SUNNY     59  37  44 CALM      30.14R
AUSTIN         SUNNY     57  39  51 E10       30.12R
PRESTON        SUNNY     57  34  42 E7        30.13F
$$
ABBREVIATIONS USED IN REMARKS
   TC - TEMPERATURES IN CELSIUS
  WCI - WIND CHILL INDEX
   HX - HEAT INDEX
  VSB - VISIBILITY
$$



USA.gov is the U.S. government's official web portal to all federal, state and local government web resources and services.